Weather Roundup
Issued by NWS Springfield, MO

Home | Current Version | Previous Version | Text Only | Print | Product List | Glossary On
Versions: 1 2 3 4 5 6 7 8 9 10 11 12 13 14 15 16 17 18 19 20 21 22 23 24 25 26 27 28 29 30 31 32 33 34 35 36 37 38 39 40 41 42 43 44 45 46 47 48 49 50
000
NZUS99 KSGF 282257
HRRSGF

HOURLY WEATHER
NATIONAL WEATHER SERVICE SPRINGFIELD MO
600 PM CDT SUN MAY 28 2017

......SGF CWA......

CITY           SKY/WX    TMP DP  RH WIND       PRES   REMARKS
SPRINGFIELD    SUNNY     77  53  43 NW13      29.96F
JOPLIN         SUNNY     80  51  36 NW12      29.97F
WEST PLAINS    MOSUNNY   77  59  53 NW8       29.95F
ROLLA          SUNNY     75  55  49 W10       29.92S
BRANSON        MOSUNNY   75  55  50 NW9       29.99S

......SURROUNDING SGF CWA......

CITY           SKY/WX    TMP DP  RH WIND       PRES   REMARKS
CHANUTE        SUNNY     82  48  30 NW15      29.97F
PARSONS        SUNNY     82  49  31 NW12      29.98F
COFFEYVILLE    SUNNY     82  49  31 NW9       29.97F
EMPORIA        MOSUNNY   80  48  32 W13G20    29.98S
HARRISON AR    MOSUNNY   76  56  49 NW10      29.98F

......KANSAS AND MISSOURI......

CITY           SKY/WX    TMP DP  RH WIND       PRES   REMARKS
KANSAS CTY INT MOSUNNY   79  49  34 W12       29.92F
SEDALIA        MOSUNNY   80  55  42 NW12      29.92F
ST JOSEPH      SUNNY     82  47  29 W12       29.90F
ST LOUIS       MOSUNNY   81  54  39 NW13      29.87S
WICHITA        MOSUNNY   82  46  28 NW12      29.99F
TOPEKA         SUNNY     81  49  32 W8        29.93F
OLATHE         SUNNY     78  51  38 NW8       29.94F

......TENNESSEE......

CITY           SKY/WX    TMP DP  RH WIND       PRES   REMARKS
MEMPHIS        NOT AVBL
NASHVILLE      PTSUNNY   78  62  57 W8        29.91S

......ARKANSAS.......

CITY           SKY/WX    TMP DP  RH WIND       PRES   REMARKS
FAYETTEVILLE   MOSUNNY   76  60  57 NW13      29.98F
FT SMITH       MOSUNNY   84  56  38 N9        29.95S
LITTLE ROCK    CLOUDY    79  68  69 W7        29.93S

......OKLAHOMA.......

CITY           SKY/WX    TMP DP  RH WIND       PRES   REMARKS
TULSA          MOSUNNY   82  58  43 NW12      29.96F
PONCA CITY     SUNNY     85  42  22 NW10      29.99F
MCALESTER      SUNNY     83  60  45 N12       29.97F
OKLAHOMA CITY  MOSUNNY   82  46  28 N13       30.00F

......IOWA............

CITY           SKY/WX    TMP DP  RH WIND       PRES   REMARKS
DES MOINES     NOT AVBL
QUAD CITIES    SUNNY     76  46  34 W17G24    29.78R

......ILLINOIS........

CITY           SKY/WX    TMP DP  RH WIND       PRES   REMARKS
QUINCY         MOSUNNY   77  51  40 W15       29.83F
CHICAGO        MOSUNNY   75  52  44 W14       29.73S




USA.gov is the U.S. government's official web portal to all federal, state and local government web resources and services.